Time,TemperatureF,DewpointF,PressureIn,WindDirection,WindDirectionDegrees,WindSpeedMPH,WindSpeedGustMPH,Humidity,HourlyPrecipIn,Conditions,Clouds,dailyrainin,SoftwareType,DateUTC
2013-03-23 00:16:00,25.0,21.0,30.09,WSW,248,0.0,0.0,84,0.00,,,0.00,weatherlink.com 1.10,2013-03-23 04:16:00,
2013-03-23 00:31:00,24.8,21.0,30.09,WSW,246,0.0,0.0,84,0.00,,,0.00,weatherlink.com 1.10,2013-03-23 04:31:00,
2013-03-23 01:16:00,24.4,20.0,30.09,West,273,0.0,0.0,84,0.00,,,0.00,weatherlink.com 1.10,2013-03-23 05:16:00,
2013-03-23 01:31:00,24.7,21.0,30.09,West,277,0.0,0.0,84,0.00,,,0.00,weatherlink.com 1.10,2013-03-23 05:31:00,
2013-03-23 01:47:00,24.7,21.0,30.09,WNW,283,0.0,3.0,84,0.00,,,0.00,weatherlink.com 1.10,2013-03-23 05:47:00,
2013-03-23 02:01:00,24.5,20.0,30.09,WNW,291,1.0,2.0,84,0.00,,,0.00,weatherlink.com 1.10,2013-03-23 06:01:00,
2013-03-23 02:16:00,24.4,20.0,30.10,WSW,247,0.0,1.0,84,0.00,,,0.00,weatherlink.com 1.10,2013-03-23 06:16:00,
2013-03-23 02:31:00,24.3,20.0,30.10,WSW,250,0.0,0.0,84,0.00,,,0.00,weatherlink.com 1.10,2013-03-23 06:31:00,
2013-03-23 02:46:00,24.4,20.0,30.09,West,269,0.0,0.0,84,0.00,,,0.00,weatherlink.com 1.10,2013-03-23 06:46:00,
2013-03-23 03:01:00,25.2,21.0,30.08,NW,326,0.0,1.0,84,0.00,,,0.00,weatherlink.com 1.10,2013-03-23 07:01:00,
2013-03-23 03:16:00,25.8,22.0,30.08,NW,312,0.0,1.0,84,0.00,,,0.00,weatherlink.com 1.10,2013-03-23 07:16:00,
2013-03-23 03:31:00,26.6,22.0,30.08,NW,314,1.0,3.0,83,0.00,,,0.00,weatherlink.com 1.10,2013-03-23 07:31:00,
2013-03-23 03:46:00,27.1,22.0,30.08,WNW,301,0.0,3.0,82,0.00,,,0.00,weatherlink.com 1.10,2013-03-23 07:46:00,
2013-03-23 04:01:00,27.3,23.0,30.08,NNW,334,0.0,2.0,82,0.00,,,0.00,weatherlink.com 1.10,2013-03-23 08:01:00,
2013-03-23 04:31:00,27.7,23.0,30.09,NNE,23,0.0,2.0,82,0.00,,,0.00,weatherlink.com 1.10,2013-03-23 08:31:00,
2013-03-23 04:46:00,27.8,23.0,30.09,North,1,0.0,2.0,82,0.00,,,0.00,weatherlink.com 1.10,2013-03-23 08:46:00,
2013-03-23 05:01:00,27.8,23.0,30.09,NE,46,0.0,3.0,82,0.00,,,0.00,weatherlink.com 1.10,2013-03-23 09:01:00,
2013-03-23 05:16:00,28.0,23.0,30.09,NW,304,1.0,3.0,82,0.00,,,0.00,weatherlink.com 1.10,2013-03-23 09:16:00,
2013-03-23 05:46:00,28.1,23.0,30.09,North,350,0.0,4.0,82,0.00,,,0.00,weatherlink.com 1.10,2013-03-23 09:46:00,
2013-03-23 06:16:00,28.1,23.0,30.09,NNE,33,0.0,1.0,81,0.00,,,0.00,weatherlink.com 1.10,2013-03-23 10:16:00,
2013-03-23 06:31:00,28.1,23.0,30.10,ENE,68,0.0,3.0,81,0.00,,,0.00,weatherlink.com 1.10,2013-03-23 10:31:00,
2013-03-23 06:46:00,28.2,23.0,30.10,NNE,32,0.0,1.0,81,0.00,,,0.00,weatherlink.com 1.10,2013-03-23 10:46:00,
2013-03-23 07:16:00,28.4,23.0,30.10,NNW,340,0.0,3.0,80,0.00,,,0.00,weatherlink.com 1.10,2013-03-23 11:16:00,
2013-03-23 07:31:00,28.4,23.0,30.11,North,8,0.0,1.0,80,0.00,,,0.00,weatherlink.com 1.10,2013-03-23 11:31:00,
2013-03-23 07:47:00,28.5,23.0,30.11,NNW,345,1.0,3.0,80,0.00,,,0.00,weatherlink.com 1.10,2013-03-23 11:47:00,
2013-03-23 08:02:00,28.6,23.0,30.11,NNE,23,0.0,2.0,80,0.00,,,0.00,weatherlink.com 1.10,2013-03-23 12:02:00,
2013-03-23 08:17:00,28.7,23.0,30.11,North,352,0.0,1.0,80,0.00,,,0.00,weatherlink.com 1.10,2013-03-23 12:17:00,
2013-03-23 08:32:00,28.9,23.0,30.12,NNE,25,1.0,2.0,80,0.00,,,0.00,weatherlink.com 1.10,2013-03-23 12:32:00,
2013-03-23 08:47:00,29.0,24.0,30.12,NE,42,0.0,1.0,80,0.00,,,0.00,weatherlink.com 1.10,2013-03-23 12:47:00,
2013-03-23 09:02:00,29.2,24.0,30.12,North,354,1.0,2.0,80,0.00,,,0.00,weatherlink.com 1.10,2013-03-23 13:02:00,
2013-03-23 09:17:00,29.5,24.0,30.12,NE,54,3.0,4.0,80,0.00,,,0.00,weatherlink.com 1.10,2013-03-23 13:17:00,
2013-03-23 09:32:00,29.7,24.0,30.12,NNE,19,0.0,4.0,78,0.00,,,0.00,weatherlink.com 1.10,2013-03-23 13:32:00,
2013-03-23 09:47:00,29.8,24.0,30.13,NE,56,0.0,7.0,78,0.00,,,0.00,weatherlink.com 1.10,2013-03-23 13:47:00,
2013-03-23 10:02:00,30.1,24.0,30.13,ENE,57,1.0,1.0,77,0.00,,,0.00,weatherlink.com 1.10,2013-03-23 14:02:00,
2013-03-23 10:17:00,30.1,24.0,30.13,NNW,330,2.0,3.0,77,0.00,,,0.00,weatherlink.com 1.10,2013-03-23 14:17:00,
2013-03-23 10:32:00,30.1,24.0,30.14,North,360,3.0,3.0,77,0.00,,,0.00,weatherlink.com 1.10,2013-03-23 14:32:00,
2013-03-23 10:47:00,30.5,24.0,30.14,NW,324,0.0,3.0,76,0.00,,,0.00,weatherlink.com 1.10,2013-03-23 14:47:00,
2013-03-23 11:02:00,30.6,24.0,30.15,ENE,59,0.0,4.0,75,0.00,,,0.00,weatherlink.com 1.10,2013-03-23 15:02:00,
2013-03-23 11:17:00,31.1,24.0,30.15,NNW,342,0.0,2.0,74,0.00,,,0.00,weatherlink.com 1.10,2013-03-23 15:17:00,
2013-03-23 11:32:00,31.3,24.0,30.16,NW,318,1.0,4.0,73,0.00,,,0.00,weatherlink.com 1.10,2013-03-23 15:32:00,
2013-03-23 11:47:00,31.4,24.0,30.17,NW,322,2.0,6.0,73,0.00,,,0.00,weatherlink.com 1.10,2013-03-23 15:47:00,
2013-03-23 12:02:00,31.1,23.0,30.17,WNW,290,2.0,6.0,72,0.00,,,0.00,weatherlink.com 1.10,2013-03-23 16:02:00,
2013-03-23 12:17:00,31.5,23.0,30.17,NNE,20,0.0,4.0,72,0.00,,,0.00,weatherlink.com 1.10,2013-03-23 16:17:00,
2013-03-23 12:32:00,31.8,23.0,30.17,NNE,26,3.0,5.0,71,0.00,,,0.00,weatherlink.com 1.10,2013-03-23 16:32:00,
2013-03-23 12:47:00,31.8,23.0,30.17,NNW,338,3.0,6.0,71,0.00,,,0.00,weatherlink.com 1.10,2013-03-23 16:47:00,
2013-03-23 13:02:00,32.0,23.0,30.16,WNW,297,0.0,2.0,70,0.00,,,0.00,weatherlink.com 1.10,2013-03-23 17:02:00,
2013-03-23 13:17:00,32.3,24.0,30.16,NNW,347,1.0,4.0,70,0.00,,,0.00,weatherlink.com 1.10,2013-03-23 17:17:00,
2013-03-23 13:32:00,32.8,24.0,30.15,NE,48,2.0,3.0,70,0.00,,,0.00,weatherlink.com 1.10,2013-03-23 17:32:00,
2013-03-23 13:47:00,32.9,24.0,30.15,NNW,346,1.0,5.0,70,0.00,,,0.00,weatherlink.com 1.10,2013-03-23 17:47:00,
2013-03-23 14:03:00,32.9,24.0,30.15,NW,309,0.0,5.0,69,0.00,,,0.00,weatherlink.com 1.10,2013-03-23 18:03:00,
2013-03-23 14:17:00,33.3,24.0,30.15,NNW,328,1.0,1.0,70,0.00,,,0.00,weatherlink.com 1.10,2013-03-23 18:17:00,
2013-03-23 14:32:00,33.2,24.0,30.15,SE,132,0.0,4.0,68,0.00,,,0.00,weatherlink.com 1.10,2013-03-23 18:32:00,
2013-03-23 14:47:00,33.8,24.0,30.14,NW,316,0.0,4.0,67,0.00,,,0.00,weatherlink.com 1.10,2013-03-23 18:47:00,
2013-03-23 15:03:00,34.1,24.0,30.14,NNW,333,0.0,3.0,67,0.00,,,0.00,weatherlink.com 1.10,2013-03-23 19:03:00,
2013-03-23 15:18:00,34.7,24.0,30.13,NNE,19,2.0,4.0,66,0.00,,,0.00,weatherlink.com 1.10,2013-03-23 19:18:00,
2013-03-23 15:33:00,34.9,25.0,30.13,ENE,77,1.0,5.0,67,0.00,,,0.00,weatherlink.com 1.10,2013-03-23 19:33:00,
2013-03-23 15:48:00,35.0,24.0,30.12,NW,320,0.0,5.0,65,0.00,,,0.00,weatherlink.com 1.10,2013-03-23 19:48:00,
2013-03-23 16:03:00,35.1,25.0,30.12,North,349,1.0,4.0,66,0.00,,,0.00,weatherlink.com 1.10,2013-03-23 20:03:00,
2013-03-23 16:18:00,35.0,25.0,30.12,NW,326,0.0,4.0,66,0.00,,,0.00,weatherlink.com 1.10,2013-03-23 20:18:00,
2013-03-23 16:33:00,35.3,25.0,30.12,NNW,333,3.0,5.0,65,0.00,,,0.00,weatherlink.com 1.10,2013-03-23 20:33:00,
2013-03-23 16:48:00,34.9,24.0,30.13,WSW,256,4.0,8.0,65,0.00,,,0.00,weatherlink.com 1.10,2013-03-23 20:48:00,
2013-03-23 17:03:00,34.8,24.0,30.12,NNW,333,1.0,7.0,65,0.00,,,0.00,weatherlink.com 1.10,2013-03-23 21:03:00,
2013-03-23 17:17:00,35.2,25.0,30.12,NW,316,3.0,6.0,66,0.00,,,0.00,weatherlink.com 1.10,2013-03-23 21:17:00,
2013-03-23 17:32:00,35.3,25.0,30.12,NE,49,2.0,5.0,65,0.00,,,0.00,weatherlink.com 1.10,2013-03-23 21:32:00,
2013-03-23 17:47:00,35.4,24.0,30.12,WNW,291,0.0,4.0,64,0.00,,,0.00,weatherlink.com 1.10,2013-03-23 21:47:00,
2013-03-23 18:02:00,34.9,24.0,30.12,NNW,334,2.0,5.0,64,0.00,,,0.00,weatherlink.com 1.10,2013-03-23 22:02:00,
2013-03-23 18:17:00,35.1,24.0,30.11,NNW,333,1.0,4.0,65,0.00,,,0.00,weatherlink.com 1.10,2013-03-23 22:17:00,
2013-03-23 18:32:00,35.0,24.0,30.11,NNW,333,1.0,3.0,65,0.00,,,0.00,weatherlink.com 1.10,2013-03-23 22:32:00,
2013-03-23 18:47:00,35.2,24.0,30.11,NE,39,0.0,3.0,64,0.00,,,0.00,weatherlink.com 1.10,2013-03-23 22:47:00,
2013-03-23 19:02:00,35.3,24.0,30.11,West,276,0.0,2.0,64,0.00,,,0.00,weatherlink.com 1.10,2013-03-23 23:02:00,
2013-03-23 19:17:00,34.8,24.0,30.11,WNW,291,3.0,3.0,65,0.00,,,0.00,weatherlink.com 1.10,2013-03-23 23:17:00,
2013-03-23 19:32:00,34.4,24.0,30.10,WNW,283,2.0,3.0,66,0.00,,,0.00,weatherlink.com 1.10,2013-03-23 23:32:00,
2013-03-23 19:47:00,34.1,24.0,30.10,West,271,0.0,2.0,67,0.00,,,0.00,weatherlink.com 1.10,2013-03-23 23:47:00,
2013-03-23 20:02:00,33.8,24.0,30.09,West,274,0.0,0.0,67,0.00,,,0.00,weatherlink.com 1.10,2013-03-24 00:02:00,
2013-03-23 20:17:00,33.5,24.0,30.10,WNW,285,0.0,1.0,68,0.00,,,0.00,weatherlink.com 1.10,2013-03-24 00:17:00,
2013-03-23 20:32:00,32.7,24.0,30.09,WNW,285,0.0,0.0,69,0.00,,,0.00,weatherlink.com 1.10,2013-03-24 00:32:00,
2013-03-23 20:47:00,31.9,23.0,30.09,WNW,285,0.0,0.0,71,0.00,,,0.00,weatherlink.com 1.10,2013-03-24 00:47:00,
2013-03-23 21:02:00,31.0,23.0,30.09,WNW,285,0.0,0.0,73,0.00,,,0.00,weatherlink.com 1.10,2013-03-24 01:02:00,
2013-03-23 21:17:00,29.8,23.0,30.09,WNW,285,0.0,0.0,76,0.00,,,0.00,weatherlink.com 1.10,2013-03-24 01:17:00,
2013-03-23 21:32:00,28.9,23.0,30.09,WNW,285,0.0,0.0,79,0.00,,,0.00,weatherlink.com 1.10,2013-03-24 01:32:00,
2013-03-23 21:47:00,28.5,23.0,30.09,WNW,285,0.0,0.0,80,0.00,,,0.00,weatherlink.com 1.10,2013-03-24 01:47:00,
2013-03-23 22:02:00,28.0,23.0,30.10,WNW,285,0.0,0.0,81,0.00,,,0.00,weatherlink.com 1.10,2013-03-24 02:02:00,
2013-03-23 22:17:00,27.6,23.0,30.11,WNW,285,0.0,0.0,81,0.00,,,0.00,weatherlink.com 1.10,2013-03-24 02:17:00,
2013-03-23 22:32:00,27.3,23.0,30.11,WNW,285,0.0,1.0,83,0.00,,,0.00,weatherlink.com 1.10,2013-03-24 02:32:00,
2013-03-23 22:47:00,27.3,23.0,30.11,ESE,103,0.0,1.0,83,0.00,,,0.00,weatherlink.com 1.10,2013-03-24 02:47:00,
2013-03-23 23:02:00,27.0,23.0,30.10,ESE,103,0.0,0.0,83,0.00,,,0.00,weatherlink.com 1.10,2013-03-24 03:02:00,
2013-03-23 23:17:00,26.6,22.0,30.09,ESE,103,0.0,0.0,83,0.00,,,0.00,weatherlink.com 1.10,2013-03-24 03:17:00,
2013-03-23 23:32:00,26.4,22.0,30.09,ESE,103,0.0,0.0,83,0.00,,,0.00,weatherlink.com 1.10,2013-03-24 03:32:00,
2013-03-23 23:47:00,26.1,22.0,30.09,ESE,103,0.0,0.0,83,0.00,,,0.00,weatherlink.com 1.10,2013-03-24 03:47:00,